Home   Weather   Conception Bay South   Past weeks

Flag for Canada Past Weather in Conception Bay South, Newfoundland and Labrador, Canada — Yesterday and Last 2 Weeks

Now
39 °F

Mostly cloudy.


Feels Like: 30 °F
Forecast: N/A
Wind: 17 mph from West

Location: St. John's

Current Time: Apr 26, 2017 at 9:14:17 pm

Latest Report: Apr 26, 2017 at 8:30 pm


Visibility: 15 mi

Pressure: 30.45 "Hg

Humidity: 33%

Dew Point: 12 °F

Location of Conception Bay SouthLocation

Past Weather in Conception Bay South — Graph

°F

Conception Bay South Temperature Yesterday

Maximum temperature yesterday: 39 °F (at 2:30 pm)
Minimum temperature yesterday: 28 °F (at 5:30 am)
Average temperature yesterday: 34 °F

High & Low Weather Summary for the Past Weeks

 TemperatureHumidityPressure
High50 °F (Apr 16, 4:30 pm)100% (Apr 12, 6:09 am)30.53 "Hg (Apr 12, 6:09 am)
Low23 °F (Apr 18, 5:39 am)37% (Apr 26, 1:30 pm)29.66 "Hg (Apr 17, 4:46 pm)
Average33 °F86%30.12 "Hg
* Reported Apr 11 7:30 pm — Apr 26 7:30 pm, Conception Bay South, Weather by CustomWeather, © 2017

Note: Actual official high and low records may vary slightly from our data, if they occured in-between our weather recording intervals... More about our weather records

Advertising

Conception Bay South Weather History for the Previous 24 Hours

Scroll right to see more
 ConditionsComfort  
Time TempWeatherWind HumidityBarometerVisibility
7:30 pm
Wed, Apr 26
41 °FMostly cloudy.14 mph39%30.45 "Hg15 mi
6:30 pm43 °FOvercast.17 mph39%30.47 "Hg15 mi
5:30 pm43 °FOvercast.13 mph39%30.47 "Hg15 mi
4:30 pm45 °FOvercast.18 mph37%30.49 "Hg15 mi
3:30 pm45 °FOvercast.13 mph42%30.48 "Hg15 mi
2:30 pm46 °FPartly sunny.16 mph40%30.49 "Hg15 mi
1:30 pm46 °FPartly sunny.13 mph37%30.48 "Hg15 mi
12:30 pm45 °FBroken clouds.14 mph42%30.51 "Hg15 mi
11:30 am43 °FBroken clouds.12 mph46%30.52 "Hg15 mi
10:30 am41 °FBroken clouds.8 mph45%30.53 "Hg15 mi
9:30 am37 °FPartly sunny.8 mph52%30.53 "Hg15 mi
8:30 am34 °FPartly sunny.5 mph65%30.53 "Hg15 mi
7:30 am30 °FPartly sunny.9 mph80%30.53 "Hg15 mi
6:30 am27 °FBroken clouds.7 mph86%30.51 "Hg15 mi
5:30 am25 °FPassing clouds.8 mph86%30.50 "Hg15 mi
4:30 am27 °FPassing clouds.9 mph86%30.51 "Hg15 mi
3:30 am28 °FPassing clouds.12 mph80%30.48 "Hg15 mi
2:30 am30 °FPassing clouds.7 mph75%30.48 "Hg15 mi
1:30 am28 °FPassing clouds.10 mph86%30.48 "Hg15 mi
12:30 am30 °FClear.14 mph80%30.46 "Hg15 mi
11:30 pm
Tue, Apr 25
30 °FPassing clouds.9 mph75%30.46 "Hg15 mi
10:30 pm30 °FPassing clouds.12 mph75%30.45 "Hg15 mi
9:30 pm32 °FPassing clouds.14 mph69%30.44 "Hg15 mi
Weather by CustomWeather, © 2017

See weather overviewHow to use our weather pages